Location: Atherton
(17.2661°S, 145.4859°E)
Time: 05:56:43
(UTC+10:00)

Explorer 11/Cluster Stage 4 - All Passes

Search period start: 18 June 2025 00:00
Search period end: 28 June 2025 00:00
Orbit: 463 x 1189 km, 28.8° (Epoch: 16 June)

Date Brightness Start Highest point End Pass type
(mag) Time Alt. Az. Time Alt. Az. Time Alt. Az.
18 Jun - 11:24:02 10° NNW 11:30:13 26° NNE 11:35:54 10° E daylight
18 Jun - 13:11:10 10° WNW 13:18:32 78° NNE 13:24:42 10° ESE daylight
18 Jun - 15:00:38 10° W 15:06:47 40° SSW 15:11:50 10° SE daylight
18 Jun - 16:51:05 10° WSW 16:55:14 21° S 16:58:50 10° SE daylight
18 Jun - 18:40:09 10° SW 18:43:44 22° S 18:46:54 10° ESE visible
18 Jun - 20:27:43 10° WSW 20:31:39 63° SSE 20:35:13 10° ENE visible
18 Jun - 22:16:11 10° WNW 22:18:49 19° NNW 22:21:29 10° NNE night (unlit)
19 Jun - 11:01:12 10° NNW 11:07:38 28° NNE 11:13:37 10° E daylight
19 Jun - 12:48:23 10° WNW 12:55:59 81° NNE 13:02:26 10° ESE daylight
19 Jun - 14:37:55 10° W 14:44:20 41° SSW 14:49:40 10° SE daylight
19 Jun - 16:28:23 10° WSW 16:32:55 23° S 16:36:48 10° SE daylight
19 Jun - 18:17:33 10° SW 18:21:30 24° S 18:24:55 10° ESE visible
19 Jun - 20:05:19 10° WSW 20:09:27 68° SSE 20:13:06 10° ENE visible
19 Jun - 21:54:03 10° WNW 21:56:36 18° NNW 21:59:06 10° NNE night (unlit)
20 Jun - 10:38:23 10° NNW 10:45:01 30° NNE 10:51:17 10° E daylight
20 Jun - 12:25:38 10° WNW 12:33:24 84° NNE 12:40:08 10° ESE daylight
20 Jun - 14:15:11 10° W 14:21:52 41° SSW 14:27:28 10° SE daylight
20 Jun - 16:05:40 10° WSW 16:10:34 24° S 16:14:46 10° SE daylight
20 Jun - 17:54:54 10° SW 17:59:14 26° S 18:02:55 10° ESE daylight
20 Jun - 19:42:51 10° WSW 19:47:13 74° SSE 19:50:59 10° ENE visible
20 Jun - 21:31:52 10° WNW 21:34:22 17° NNW 21:36:45 10° N night (unlit)
21 Jun - 10:15:37 10° NNW 10:22:22 31° NNE 10:28:53 10° E daylight
21 Jun - 12:02:53 10° WNW 12:10:46 86° NNE 12:17:46 10° ESE daylight
21 Jun - 13:52:28 10° W 13:59:22 42° SSW 14:05:14 10° SE daylight
21 Jun - 15:42:55 10° WSW 15:48:12 26° S 15:52:41 10° SE daylight
21 Jun - 17:32:14 10° SW 17:36:57 29° S 17:40:55 10° ESE daylight
21 Jun - 19:20:21 10° WSW 19:25:00 79° SSE 19:28:53 10° ENE visible
21 Jun - 21:09:37 10° WNW 21:12:06 16° NNW 21:14:27 10° N visible
22 Jun - 09:52:54 10° NNW 09:59:42 33° NNE 10:06:25 10° E daylight
22 Jun - 11:40:10 10° WNW 11:48:06 89° NNE 11:55:22 10° ESE daylight
22 Jun - 13:29:44 10° W 13:36:49 42° SSW 13:42:58 10° SE daylight
22 Jun - 15:20:09 10° WSW 15:25:47 27° S 15:30:35 10° SE daylight
22 Jun - 17:09:30 10° SW 17:14:38 31° S 17:18:53 10° ESE daylight
22 Jun - 18:57:47 10° WSW 19:02:44 85° SSE 19:06:47 10° ENE visible
22 Jun - 20:47:19 10° WNW 20:49:50 16° NW 20:52:12 10° N visible
23 Jun - 09:30:14 10° NNW 09:37:01 34° NNE 09:43:54 10° E daylight
23 Jun - 11:17:29 10° WNW 11:25:26 89° SSW 11:32:54 10° ESE daylight
23 Jun - 13:07:01 10° W 13:14:15 42° SSW 13:20:38 10° SE daylight
23 Jun - 14:57:24 10° WSW 15:03:20 28° S 15:08:27 10° SE daylight
23 Jun - 16:46:45 10° SW 16:52:17 34° S 16:56:50 10° ESE daylight
23 Jun - 18:35:11 10° WSW 18:40:27 89° SE 18:44:41 10° ENE visible
23 Jun - 20:24:55 10° WNW 20:27:32 16° NW 20:29:57 10° N visible
24 Jun - 09:07:37 10° NNW 09:14:21 35° NNE 09:21:21 10° E daylight
24 Jun - 10:54:50 10° WNW 11:02:45 86° SSW 11:10:24 10° ESE daylight
24 Jun - 12:44:18 10° W 12:51:39 42° SSW 12:58:16 10° SE daylight
24 Jun - 14:34:37 10° WSW 14:40:51 30° S 14:46:16 10° ESE daylight
24 Jun - 16:23:59 10° SW 16:29:53 36° SSE 16:34:45 10° ESE daylight
24 Jun - 18:12:31 10° WSW 18:18:07 87° NNW 18:22:34 10° ENE visible
24 Jun - 20:02:28 10° WNW 20:05:14 16° NW 20:07:45 10° N visible
25 Jun - 08:45:02 10° NNW 08:51:40 36° NNE 08:58:44 10° E daylight
25 Jun - 10:32:13 10° WNW 10:40:03 84° SSW 10:47:51 10° ESE daylight
25 Jun - 12:21:38 10° W 12:29:01 42° SSW 12:35:51 10° SE daylight
25 Jun - 14:11:51 10° WSW 14:18:20 31° S 14:24:02 10° ESE daylight
25 Jun - 16:01:11 10° SW 16:07:28 39° SSE 16:12:38 10° E daylight
25 Jun - 17:49:50 10° WSW 17:55:45 83° NNW 18:00:26 10° ENE daylight
25 Jun - 19:39:58 10° WNW 19:42:54 16° NW 19:45:33 10° N visible
26 Jun - 08:22:31 10° NNW 08:29:00 37° NNE 08:36:05 10° E daylight
26 Jun - 10:09:39 10° WNW 10:17:20 82° SSW 10:25:14 10° ESE daylight
26 Jun - 11:58:59 10° W 12:06:23 42° SSW 12:13:24 10° SE daylight
26 Jun - 13:49:05 10° WSW 13:55:48 32° S 14:01:46 10° ESE daylight
26 Jun - 15:38:23 10° SW 15:45:00 41° SSE 15:50:29 10° E daylight
26 Jun - 17:27:06 10° WSW 17:33:20 80° NNW 17:38:18 10° ENE daylight
26 Jun - 19:17:24 10° WNW 19:20:33 16° NW 19:23:22 10° N visible
27 Jun - 08:00:02 10° NNW 08:06:20 38° NNE 08:13:23 10° E daylight
27 Jun - 09:47:08 10° WNW 09:54:39 80° SSW 10:02:36 10° ESE daylight
27 Jun - 11:36:22 10° W 11:43:43 42° SSW 11:50:53 10° SE daylight
27 Jun - 13:26:21 10° WSW 13:33:13 33° S 13:39:27 10° ESE daylight
27 Jun - 15:15:35 10° WSW 15:22:30 44° SSE 15:28:18 10° E daylight
27 Jun - 17:04:21 10° WSW 17:10:54 77° NNW 17:16:07 10° ENE daylight
27 Jun - 18:54:46 10° WNW 18:58:10 17° NW 19:01:10 10° N visible
